KC1UIX-13 Weather Reports


time (UTC)temp
C
wind
direction
speed
KPH
gust
KPH
rain 1hr
cm
rain 24hr
cm
rain mn
cm
humidity
%
barometer
mb
20260506051018 10 221 3.2 9.7 0.00 0.00 0.00 91 1008.9
20260506045018 10 219 3.2 11.3 0.00 0.00 0.00 89 1009.0
20260506044039 10 220 3.2 8.0 0.00 0.00 0.00 88 1009.0
20260506043019 10 218 3.2 8.0 0.00 0.00 0.00 88 1009.0
20260506042019 10 208 3.2 12.9 0.00 0.00 0.00 88 1009.0
20260506041019 11 208 3.2 8.0 0.00 0.00 0.00 87 1008.8
20260506040019 11 217 3.2 8.0 0.00 0.00 0.00 87 1008.8
20260506035019 11 215 3.2 11.3 0.00 0.00 0.00 87 1008.8
20260506034020 10 226 3.2 11.3 0.00 0.00 0.00 88 1008.7
20260506033100 10 242 3.2 9.7 0.00 0.00 0.00 90 1008.6
20260506032020 10 251 3.2 9.7 0.00 0.00 0.00 89 1008.6
20260506031017 11 257 1.6 6.4 0.00 0.00 0.00 87 1008.6
20260506030020 11 233 1.6 4.8 0.00 0.00 0.00 86 1008.7
20260506025040 11 272 3.2 11.3 0.00 0.00 0.00 86 1008.7
20260506024020 11 280 4.8 11.3 0.00 0.00 0.00 87 1008.7
20260506023021 11 275 1.6 6.4 0.00 0.00 0.00 86 1008.7
20260506022018 11 286 1.6 4.8 0.00 0.00 0.00 84 1008.7
20260506021018 11 235 1.6 6.4 0.00 0.00 0.00 84 1008.7
20260506020018 11 237 3.2 8.0 0.00 0.00 0.00 85 1008.8
20260506015018 11 238 3.2 9.7 0.00 0.00 0.00 84 1008.9
20260506014021 12 229 3.2 8.0 0.00 0.00 0.00 82 1008.8
20260506013018 12 231 3.2 8.0 0.00 0.00 0.00 81 1008.8
20260506012039 12 255 3.2 8.0 0.00 0.00 0.00 80 1008.7
20260506011019 12 243 1.6 6.4 0.00 0.00 0.00 80 1008.6
20260506010019 12 226 1.6 8.0 0.00 0.00 0.00 80 1008.5
20260506005040 12 243 1.6 6.4 0.00 0.00 0.00 79 1008.4
20260506004039 13 234 3.2 8.0 0.00 0.00 0.00 77 1008.1
20260506003019 13 228 3.2 11.3 0.00 0.00 0.00 76 1008.1
20260506002020 14 201 4.8 14.5 0.00 0.00 0.00 75 1007.8
20260506001020 15 203 4.8 12.9 0.00 0.00 0.00 72 1007.7
20260506000019 16 215 4.8 14.5 0.00 0.00 0.00 70 1007.5
20260505235020 16 224 6.4 16.1 0.00 0.00 0.00 68 1007.2
20260505234018 16 226 6.4 17.7 0.00 0.00 0.00 65 1007.2
20260505233017 13 264 14.5 33.8 0.00 0.00 0.00 72 1007.7
20260505232021 11 287 4.8 12.9 0.00 0.00 0.00 83 1006.9
20260505231021 11 231 4.8 11.3 0.00 0.00 0.00 83 1005.9
20260505230021 11 236 4.8 12.9 0.00 0.00 0.00 83 1005.6
20260505225018 12 237 4.8 14.5 0.00 0.00 0.00 82 1005.4
20260505224018 12 222 6.4 14.5 0.00 0.00 0.00 81 1005.3
20260505223059 12 240 4.8 12.9 0.00 0.00 0.00 79 1005.3
20260505222019 13 244 6.4 12.9 0.00 0.00 0.00 78 1005.2
20260505221019 13 232 8.0 16.1 0.00 0.00 0.00 78 1005.2
20260505220019 13 242 8.0 16.1 0.00 0.00 0.00 79 1005.1
20260505215020 13 240 8.0 14.5 0.00 0.00 0.00 79 1005.0
20260505214020 13 239 8.0 16.1 0.00 0.00 0.00 79 1005.0
20260505213020 14 240 8.0 17.7 0.00 0.00 0.00 76 1005.0
20260505212100 13 219 6.4 12.9 0.00 0.00 0.00 75 1004.9
20260505211040 13 228 6.4 16.1 0.00 0.00 0.00 76 1004.9
20260505210017 13 219 6.4 16.1 0.00 0.00 0.00 76 1004.9
20260505205020 14 220 4.8 12.9 0.00 0.00 0.00 75 1004.8
20260505204021 14 225 6.4 16.1 0.00 0.00 0.00 74 1005.0
20260505203020 13 234 6.4 14.5 0.00 0.00 0.00 77 1005.0
20260505202021 13 244 6.4 14.5 0.00 0.00 0.00 77 1005.1
20260505201021 13 242 8.0 14.5 0.00 0.00 0.00 77 1005.3
20260505200038 13 243 8.0 14.5 0.00 0.00 0.00 78 1005.4
20260505195018 13 241 8.0 19.3 0.00 0.00 0.00 77 1005.5
20260505194019 13 235 8.0 17.7 0.00 0.00 0.00 78 1005.6
20260505193038 13 234 6.4 16.1 0.00 0.00 0.00 79 1005.8
20260505192019 13 235 4.8 14.5 0.00 0.00 0.00 81 1005.9
20260505191039 13 239 8.0 16.1 0.00 0.00 0.00 79 1006.2
20260505190019 13 235 6.4 14.5 0.00 0.00 0.00 79 1006.5
20260505185020 13 245 8.0 17.7 0.00 0.00 0.00 80 1006.6
20260505184019 12 241 8.0 16.1 0.00 0.00 0.00 81 1006.6
20260505183020 13 248 8.0 14.5 0.00 0.00 0.00 80 1006.6
20260505182017 13 243 6.4 17.7 0.00 0.00 0.00 80 1006.6
20260505181020 13 239 4.8 12.9 0.00 0.00 0.00 77 1006.6
20260505180020 13 235 6.4 16.1 0.00 0.00 0.00 78 1006.7
20260505175040 13 240 6.4 14.5 0.00 0.00 0.00 78 1007.0
20260505174040 13 202 4.8 16.1 0.00 0.00 0.00 78 1007.0
20260505173017 13 216 4.8 17.7 0.00 0.00 0.00 78 1007.0
20260505172017 13 226 4.8 11.3 0.00 0.00 0.00 78 1007.0
20260505171018 13 219 6.4 17.7 0.00 0.00 0.00 79 1007.4
20260505170021 13 204 6.4 17.7 0.00 0.00 0.00 77 1007.6
20260505165021 13 209 4.8 14.5 0.00 0.00 0.00 77 1007.6
20260505164018 14 206 4.8 16.1 0.00 0.00 0.00 76 1007.8
20260505163018 14 205 4.8 12.9 0.00 0.00 0.00 75 1008.0
20260505162019 14 259 3.2 11.3 0.00 0.00 0.00 75 1008.1
20260505161019 13 222 4.8 11.3 0.00 0.00 0.00 77 1008.3
20260505153040 13 208 4.8 12.9 0.00 0.00 0.00 79 1008.8
20260505152040 13 217 4.8 11.3 0.00 0.00 0.00 79 1008.8
20260505151020 12 239 3.2 9.7 0.00 0.00 0.00 81 1008.9
20260505125019 11 225 4.8 14.5 0.00 0.00 0.00 86 1008.9
20260505124019 11 206 3.2 11.3 0.00 0.00 0.00 86 1008.8
20260505123039 11 227 3.2 9.7 0.00 0.00 0.00 87 1008.8
20260505122019 10 223 4.8 11.3 0.00 0.00 0.00 88 1008.7
20260505121020 10 220 4.8 12.9 0.00 0.00 0.00 88 1008.8
20260505120017 10 216 3.2 9.7 0.00 0.00 0.00 89 1008.9
20260505115037 10 217 3.2 9.7 0.00 0.00 0.00 89 1009.0
20260505114021 10 224 3.2 8.0 0.00 0.00 0.00 90 1009.1
20260505113020 9 238 3.2 9.7 0.00 0.00 0.00 91 1009.1
20260505112021 9 223 3.2 9.7 0.00 0.00 0.00 91 1009.1
20260505111020 9 225 3.2 8.0 0.00 0.00 0.00 92 1009.0
20260505102019 8 335 1.6 4.8 0.00 0.00 0.00 95 1008.9
20260505101019 8 311 0.0 3.2 0.00 0.00 0.00 94 1008.9
20260505100019 8 329 0.0 3.2 0.00 0.00 0.00 93 1009.0
20260505095018 8 338 0.0 3.2 0.00 0.00 0.00 93 1009.0
20260505094059 8 335 1.6 3.2 0.00 0.00 0.00 92 1009.0
20260505093057 8 295 1.6 4.8 0.00 0.00 0.00 91 1008.9
20260505092017 8 262 1.6 4.8 0.00 0.00 0.00 91 1008.9
20260505091020 8 223 1.6 4.8 0.00 0.00 0.00 90 1009.0
20260505090019 8 219 1.6 6.4 0.00 0.00 0.00 91 1009.0
20260505085100 8 223 1.6 9.7 0.00 0.00 0.00 91 1009.1
20260505084059 8 250 1.6 6.4 0.00 0.00 0.00 91 1009.2
20260505083018 8 247 1.6 4.8 0.00 0.00 0.00 90 1009.2
20260505082017 9 244 1.6 9.7 0.00 0.00 0.00 89 1009.3
20260505081018 9 219 3.2 6.4 0.00 0.00 0.00 89 1009.3
20260505080019 8 225 3.2 8.0 0.00 0.00 0.00 89 1009.3
20260505075019 9 256 1.6 4.8 0.00 0.00 0.00 88 1009.3
20260505074018 10 231 1.6 4.8 0.00 0.00 0.00 86 1009.3
20260505073059 10 231 3.2 8.0 0.00 0.00 0.00 83 1009.3
20260505072019 10 232 3.2 8.0 0.00 0.00 0.00 80 1009.2
20260505071018 10 233 4.8 11.3 0.00 0.00 0.00 80 1009.1
20260505070019 10 230 6.4 12.9 0.00 0.00 0.00 80 1009.1
20260505065039 10 236 6.4 11.3 0.00 0.00 0.00 83 1009.1
20260505064019 9 239 3.2 8.0 0.00 0.00 0.00 88 1009.0
20260505063019 9 232 1.6 8.0 0.00 0.00 0.00 87 1009.0
20260505062019 9 238 3.2 8.0 0.00 0.00 0.00 88 1009.1
20260505061040 9 235 3.2 6.4 0.00 0.00 0.00 87 1009.1
20260505060040 9 233 3.2 6.4 0.00 0.00 0.00 87 1009.3